| time (UTC) | temp C | wind direction | speed KPH | gust KPH | rain 1hr cm | rain 24hr cm | rain mn cm | humidity % | barometer mb |
| 20260504000034 | 15 | 271 | 0.0 | 3.2 | 0.00 | 0.03 | 0.03 | 86 | 1016.1 |
| 20260503234522 | 15 | 293 | 0.0 | 1.6 | 0.00 | 0.03 | 0.03 | 85 | 1016.0 |
| 20260503233007 | 15 | 278 | 0.0 | 1.6 | 0.00 | 0.03 | 0.03 | 85 | 1015.8 |
| 20260503231502 | 15 | 278 | 0.0 | 0.0 | 0.00 | 0.03 | 0.03 | 86 | 1016.0 |
| 20260503230059 | 15 | 269 | 0.0 | 1.6 | 0.00 | 0.03 | 0.03 | 86 | 1016.1 |
| 20260503224547 | 15 | 270 | 0.0 | 1.6 | 0.03 | 0.03 | 0.03 | 82 | 1016.1 |
| 20260503223026 | 16 | 246 | 0.0 | 1.6 | 0.03 | 0.03 | 0.03 | 81 | 1016.0 |
| 20260503221511 | 16 | 283 | 0.0 | 1.6 | 0.03 | 0.03 | 0.03 | 76 | 1015.8 |
| 20260503220105 | 17 | 261 | 0.0 | 8.0 | 0.03 | 0.03 | 0.03 | 72 | 1015.6 |
| 20260503214555 | 17 | 279 | 0.0 | 1.6 | 0.00 | 0.00 | 0.00 | 71 | 1015.7 |
| 20260503213052 | 17 | 264 | 0.0 | 1.6 | 0.00 | 0.00 | 0.00 | 71 | 1015.5 |
| 20260503211524 | 17 | 255 | 0.0 | 1.6 | 0.00 | 0.00 | 0.00 | 73 | 1015.4 |
| 20260503210017 | 16 | 250 | 0.0 | 1.6 | 0.00 | 0.00 | 0.00 | 75 | 1015.3 |
| 20260503204513 | 17 | 253 | 0.0 | 1.6 | 0.00 | 0.00 | 0.00 | 72 | 1015.0 |
| 20260503203020 | 17 | 268 | 0.0 | 1.6 | 0.00 | 0.00 | 0.00 | 71 | 1015.1 |
| 20260503201510 | 17 | 331 | 0.0 | 1.6 | 0.00 | 0.00 | 0.00 | 72 | 1014.9 |
| 20260503200005 | 17 | 271 | 0.0 | 4.8 | 0.00 | 0.00 | 0.00 | 73 | 1014.7 |
| 20260503194554 | 16 | 283 | 0.0 | 1.6 | 0.00 | 0.00 | 0.00 | 77 | 1014.6 |
| 20260503193042 | 15 | 283 | 0.0 | 0.0 | 0.00 | 0.00 | 0.00 | 81 | 1014.4 |
| 20260503191548 | 16 | 283 | 0.0 | 1.6 | 0.00 | 0.00 | 0.00 | 79 | 1014.4 |
| 20260503190019 | 16 | 283 | 0.0 | 0.0 | 0.00 | 0.00 | 0.00 | 79 | 1014.4 |
| 20260503184518 | 16 | 261 | 0.0 | 1.6 | 0.00 | 0.00 | 0.00 | 80 | 1014.5 |
| 20260503183015 | 15 | 287 | 0.0 | 1.6 | 0.00 | 0.00 | 0.00 | 83 | 1014.5 |
| 20260503181515 | 14 | 266 | 0.0 | 0.0 | 0.00 | 0.00 | 0.00 | 88 | 1014.6 |
| 20260503180026 | 14 | 266 | 0.0 | 1.6 | 0.00 | 0.00 | 0.00 | 89 | 1014.6 |
| 20260503174517 | 13 | 222 | 0.0 | 0.0 | 0.00 | 0.00 | 0.00 | 89 | 1014.6 |
| 20260503173001 | 13 | 222 | 0.0 | 0.0 | 0.00 | 0.00 | 0.00 | 88 | 1014.7 |
| 20260503171556 | 13 | 222 | 0.0 | 0.0 | 0.00 | 0.00 | 0.00 | 87 | 1014.6 |
| 20260503090104 | 14 | 73 | 0.0 | 0.0 | 0.00 | 0.00 | 0.00 | 86 | 1017.6 |
| 20260503081553 | 16 | 217 | 0.0 | 1.6 | 0.00 | 0.00 | 0.00 | 82 | 1017.2 |
| 20260503071507 | 17 | 173 | 0.0 | 1.6 | 0.00 | 0.00 | 0.00 | 77 | 1016.9 |
| 20260503054602 | 21 | 166 | 1.6 | 8.0 | 0.00 | 0.00 | 0.00 | 65 | 1017.4 |
| 20260503053048 | 21 | 165 | 1.6 | 4.8 | 0.00 | 0.00 | 0.00 | 66 | 1017.2 |
| 20260503051544 | 22 | 158 | 1.6 | 8.0 | 0.00 | 0.00 | 0.00 | 63 | 1017.3 |
| 20260503050020 | 23 | 150 | 3.2 | 8.0 | 0.00 | 0.00 | 0.00 | 59 | 1017.3 |
| 20260503044510 | 23 | 12 | 1.6 | 8.0 | 0.00 | 0.00 | 0.00 | 59 | 1017.5 |
| 20260503043006 | 23 | 165 | 1.6 | 8.0 | 0.00 | 0.00 | 0.00 | 60 | 1017.8 |
| 20260503041502 | 23 | 138 | 1.6 | 6.4 | 0.00 | 0.00 | 0.00 | 58 | 1017.8 |
| 20260503040053 | 23 | 110 | 0.0 | 6.4 | 0.00 | 0.00 | 0.00 | 60 | 1018.1 |
| 20260503034552 | 23 | 165 | 3.2 | 8.0 | 0.00 | 0.00 | 0.00 | 60 | 1018.3 |
| 20260503033039 | 22 | 12 | 1.6 | 6.4 | 0.00 | 0.00 | 0.00 | 63 | 1018.4 |
| 20260503031519 | 22 | 99 | 3.2 | 8.0 | 0.00 | 0.00 | 0.00 | 62 | 1018.6 |
| 20260503030020 | 22 | 219 | 0.0 | 6.4 | 0.00 | 0.00 | 0.00 | 65 | 1018.9 |
| 20260503024511 | 22 | 89 | 1.6 | 9.7 | 0.00 | 0.00 | 0.00 | 65 | 1019.1 |
| 20260503023100 | 22 | 83 | 3.2 | 11.3 | 0.00 | 0.00 | 0.00 | 63 | 1019.3 |
| 20260503021544 | 22 | 153 | 1.6 | 6.4 | 0.00 | 0.00 | 0.00 | 64 | 1019.5 |
| 20260503020031 | 21 | 193 | 0.0 | 6.4 | 0.00 | 0.00 | 0.00 | 65 | 1019.8 |
| 20260503014517 | 21 | 118 | 0.0 | 8.0 | 0.00 | 0.00 | 0.00 | 65 | 1020.2 |
| 20260503013026 | 22 | 123 | 1.6 | 6.4 | 0.00 | 0.00 | 0.00 | 65 | 1020.4 |
| 20260503011630 | 21 | 233 | 1.6 | 6.4 | 0.00 | 0.00 | 0.00 | 69 | 1020.7 |
| 20260503010044 | 20 | 134 | 1.6 | 8.0 | 0.00 | 0.00 | 0.00 | 70 | 1020.8 |
| 20260503004536 | 20 | 108 | 1.6 | 8.0 | 0.00 | 0.00 | 0.00 | 71 | 1020.9 |
| 20260503003035 | 19 | 179 | 1.6 | 6.4 | 0.00 | 0.00 | 0.00 | 73 | 1020.9 |
| 20260503001519 | 18 | 96 | 0.0 | 4.8 | 0.00 | 0.00 | 0.00 | 75 | 1020.9 |